Time,TemperatureF,DewpointF,PressureIn,WindDirection,WindDirectionDegrees,WindSpeedMPH,WindSpeedGustMPH,Humidity,HourlyPrecipIn,Conditions,Clouds,dailyrainin,SoftwareType,DateUTC
2013-03-05 00:00:00,26.4,20.5,28.92,NW,315,1.2,0.0,78,0.00,CLR,SKC,0.00,WeatherDisplay:10.37,2013-03-05 05:00:00,
2013-03-05 00:01:00,26.4,20.5,28.92,NW,315,0.0,0.0,78,0.00,CLR,SKC,0.00,WeatherDisplay:10.37,2013-03-05 05:01:00,
2013-03-05 00:02:00,26.4,20.5,28.92,NW,315,0.0,0.0,78,0.00,CLR,SKC,0.00,WeatherDisplay:10.37,2013-03-05 05:02:00,
2013-03-05 00:07:00,26.4,20.5,28.93,NW,315,0.0,0.0,78,0.00,CLR,SKC,0.00,WeatherDisplay:10.37,2013-03-05 05:07:00,
2013-03-05 00:12:00,25.9,20.3,28.92,NW,315,0.0,0.0,79,0.00,CLR,SKC,0.00,WeatherDisplay:10.37,2013-03-05 05:12:00,
2013-03-05 00:17:00,26.1,20.4,28.92,North,0,2.3,2.3,79,0.00,CLR,SKC,0.00,WeatherDisplay:10.37,2013-03-05 05:17:00,
2013-03-05 00:22:00,26.1,20.4,28.92,North,0,2.3,0.0,79,0.00,CLR,SKC,0.00,WeatherDisplay:10.37,2013-03-05 05:22:00,
2013-03-05 00:27:00,26.1,20.4,28.93,NW,315,2.3,2.3,79,0.00,CLR,SKC,0.00,WeatherDisplay:10.37,2013-03-05 05:27:00,
2013-03-05 00:32:00,26.1,20.4,28.93,NW,315,3.5,3.5,79,0.00,CLR,SKC,0.00,WeatherDisplay:10.37,2013-03-05 05:32:00,
2013-03-05 00:37:00,26.1,20.4,28.93,North,0,2.3,2.3,79,0.00,CLR,SKC,0.00,WeatherDisplay:10.37,2013-03-05 05:37:00,
2013-03-05 00:42:00,26.1,20.4,28.93,NW,315,3.5,3.5,79,0.00,CLR,SKC,0.00,WeatherDisplay:10.37,2013-03-05 05:42:00,
2013-03-05 00:47:00,26.1,20.1,28.93,NNW,338,2.3,2.3,78,0.00,CLR,SKC,0.00,WeatherDisplay:10.37,2013-03-05 05:47:00,
2013-03-05 00:52:00,26.1,20.1,28.92,NW,315,3.5,3.5,78,0.00,CLR,SKC,0.00,WeatherDisplay:10.37,2013-03-05 05:52:00,
2013-03-05 00:57:00,26.1,20.1,28.93,North,0,3.5,3.5,78,0.00,CLR,SKC,0.00,WeatherDisplay:10.37,2013-03-05 05:57:00,
2013-03-05 01:02:00,26.1,20.1,28.93,NW,315,2.3,2.3,78,0.00,CLR,SKC,0.00,WeatherDisplay:10.37,2013-03-05 06:02:00,
2013-03-05 01:07:00,26.1,20.1,28.93,NW,315,2.3,2.3,78,0.00,CLR,SKC,0.00,WeatherDisplay:10.37,2013-03-05 06:07:00,
2013-03-05 01:12:00,25.7,19.8,28.93,NW,315,3.5,3.5,78,0.00,CLR,SKC,0.00,WeatherDisplay:10.37,2013-03-05 06:12:00,
2013-03-05 01:17:00,25.5,19.6,28.93,NW,315,1.2,1.2,78,0.00,CLR,SKC,0.00,WeatherDisplay:10.37,2013-03-05 06:17:00,
2013-03-05 01:22:00,25.3,19.4,28.93,NW,315,2.3,2.3,78,0.00,CLR,SKC,0.00,WeatherDisplay:10.37,2013-03-05 06:22:00,
2013-03-05 01:27:00,25.3,19.7,28.94,NW,315,2.3,2.3,79,0.00,CLR,SKC,0.00,WeatherDisplay:10.37,2013-03-05 06:27:00,
2013-03-05 01:32:00,25.2,19.6,28.94,NW,315,2.3,2.3,79,0.00,CLR,SKC,0.00,WeatherDisplay:10.37,2013-03-05 06:32:00,
2013-03-05 01:37:00,25.2,19.6,28.94,North,0,2.3,2.3,79,0.00,CLR,SKC,0.00,WeatherDisplay:10.37,2013-03-05 06:37:00,
2013-03-05 01:42:00,25.2,19.6,28.94,North,0,2.3,2.3,79,0.00,CLR,SKC,0.00,WeatherDisplay:10.37,2013-03-05 06:42:00,
2013-03-05 01:47:00,25.3,19.7,28.94,North,0,3.5,3.5,79,0.00,CLR,SKC,0.00,WeatherDisplay:10.37,2013-03-05 06:47:00,
2013-03-05 01:52:00,25.3,19.7,28.94,North,0,2.3,2.3,79,0.00,CLR,SKC,0.00,WeatherDisplay:10.37,2013-03-05 06:52:00,
2013-03-05 01:57:00,25.0,19.4,28.94,NW,315,3.5,3.5,79,0.00,CLR,SKC,0.00,WeatherDisplay:10.37,2013-03-05 06:57:00,
2013-03-05 02:02:00,25.0,19.7,28.94,NW,315,4.6,4.6,80,0.00,CLR,SKC,0.00,WeatherDisplay:10.37,2013-03-05 07:02:00,
2013-03-05 02:07:00,25.0,19.7,28.93,NW,315,4.6,4.6,80,0.00,CLR,SKC,0.00,WeatherDisplay:10.37,2013-03-05 07:07:00,
2013-03-05 02:12:00,25.0,19.7,28.93,North,0,3.5,3.5,80,0.00,CLR,SKC,0.00,WeatherDisplay:10.37,2013-03-05 07:12:00,
2013-03-05 02:17:00,24.8,19.5,28.93,NW,315,3.5,3.5,80,0.00,CLR,SKC,0.00,WeatherDisplay:10.37,2013-03-05 07:17:00,
2013-03-05 02:22:00,24.6,19.3,28.94,North,0,1.2,1.2,80,0.00,CLR,SKC,0.00,WeatherDisplay:10.37,2013-03-05 07:22:00,
2013-03-05 02:27:00,24.4,19.4,28.93,North,0,2.3,2.3,81,0.00,CLR,SKC,0.00,WeatherDisplay:10.37,2013-03-05 07:27:00,
2013-03-05 02:32:00,24.3,19.3,28.93,North,0,2.3,0.0,81,0.00,CLR,SKC,0.00,WeatherDisplay:10.37,2013-03-05 07:32:00,
2013-03-05 02:37:00,24.1,19.1,28.93,North,0,0.0,0.0,81,0.00,CLR,SKC,0.00,WeatherDisplay:10.37,2013-03-05 07:37:00,
2013-03-05 02:42:00,23.9,18.9,28.93,North,0,0.0,0.0,81,0.00,CLR,SKC,0.00,WeatherDisplay:10.37,2013-03-05 07:42:00,
2013-03-05 02:47:00,23.5,18.6,28.93,NE,45,0.0,0.0,81,0.00,CLR,SKC,0.00,WeatherDisplay:10.37,2013-03-05 07:47:00,
2013-03-05 02:52:00,23.0,18.3,28.93,NE,45,0.0,0.0,82,0.00,CLR,SKC,0.00,WeatherDisplay:10.37,2013-03-05 07:52:00,
2013-03-05 02:57:00,22.6,18.3,28.93,NE,45,0.0,0.0,83,0.00,CLR,SKC,0.00,WeatherDisplay:10.37,2013-03-05 07:57:00,
2013-03-05 03:02:00,22.6,18.3,28.93,NE,45,0.0,0.0,83,0.00,CLR,SKC,0.00,WeatherDisplay:10.37,2013-03-05 08:02:00,
2013-03-05 03:07:00,22.6,18.3,28.93,NE,45,0.0,0.0,83,0.00,CLR,SKC,0.00,WeatherDisplay:10.37,2013-03-05 08:07:00,
2013-03-05 03:12:00,21.7,17.4,28.93,NE,45,0.0,0.0,83,0.00,CLR,SKC,0.00,WeatherDisplay:10.37,2013-03-05 08:12:00,
2013-03-05 03:17:00,21.4,17.0,28.93,NE,45,0.0,0.0,83,0.00,CLR,SKC,0.00,WeatherDisplay:10.37,2013-03-05 08:17:00,
2013-03-05 03:22:00,21.4,17.0,28.93,NE,45,0.0,0.0,83,0.00,CLR,SKC,0.00,WeatherDisplay:10.37,2013-03-05 08:22:00,
2013-03-05 03:27:00,21.4,17.0,28.93,NE,45,0.0,0.0,83,0.00,CLR,SKC,0.00,WeatherDisplay:10.37,2013-03-05 08:27:00,
2013-03-05 03:32:00,21.0,16.9,28.92,NE,45,0.0,0.0,84,0.00,CLR,SKC,0.00,WeatherDisplay:10.37,2013-03-05 08:32:00,
2013-03-05 03:37:00,20.8,17.0,28.92,NE,45,0.0,0.0,85,0.00,CLR,SKC,0.00,WeatherDisplay:10.37,2013-03-05 08:37:00,
2013-03-05 03:42:00,20.7,16.9,28.92,NE,45,0.0,0.0,85,0.00,CLR,SKC,0.00,WeatherDisplay:10.37,2013-03-05 08:42:00,
2013-03-05 03:47:00,20.7,17.1,28.92,NE,45,0.0,0.0,86,0.00,CLR,SKC,0.00,WeatherDisplay:10.37,2013-03-05 08:47:00,
2013-03-05 03:52:00,20.8,17.6,28.92,NE,45,2.3,2.3,87,0.00,CLR,SKC,0.00,WeatherDisplay:10.37,2013-03-05 08:52:00,
2013-03-05 03:57:00,20.8,17.8,28.92,NE,45,2.3,2.3,88,0.00,CLR,SKC,0.00,WeatherDisplay:10.37,2013-03-05 08:57:00,
2013-03-05 04:02:00,20.7,17.7,28.92,NE,45,1.2,1.2,88,0.00,CLR,SKC,0.00,WeatherDisplay:10.37,2013-03-05 09:02:00,
2013-03-05 04:07:00,20.7,17.7,28.92,NE,45,1.2,1.2,88,0.00,CLR,SKC,0.00,WeatherDisplay:10.37,2013-03-05 09:07:00,
2013-03-05 04:12:00,20.8,18.1,28.92,NE,45,1.2,0.0,89,0.00,CLR,SKC,0.00,WeatherDisplay:10.37,2013-03-05 09:12:00,
2013-03-05 04:17:00,20.8,18.4,28.92,NE,45,1.2,0.0,90,0.00,CLR,SKC,0.00,WeatherDisplay:10.37,2013-03-05 09:17:00,
2013-03-05 04:22:00,20.8,18.4,28.92,North,0,1.2,0.0,90,0.00,CLR,SKC,0.00,WeatherDisplay:10.37,2013-03-05 09:22:00,
2013-03-05 04:27:00,21.0,18.5,28.92,North,0,2.3,2.3,90,0.00,CLR,SKC,0.00,WeatherDisplay:10.37,2013-03-05 09:27:00,
2013-03-05 04:32:00,21.2,19.0,28.92,NE,45,2.3,2.3,91,0.00,CLR,SKC,0.00,WeatherDisplay:10.37,2013-03-05 09:32:00,
2013-03-05 04:37:00,21.4,19.2,28.91,NE,45,2.3,2.3,91,0.00,CLR,SKC,0.00,WeatherDisplay:10.37,2013-03-05 09:37:00,
2013-03-05 04:42:00,21.4,19.2,28.92,NE,45,3.5,3.5,91,0.00,CLR,SKC,0.00,WeatherDisplay:10.37,2013-03-05 09:42:00,
2013-03-05 04:47:00,21.2,19.0,28.92,NE,45,2.3,0.0,91,0.00,CLR,SKC,0.00,WeatherDisplay:10.37,2013-03-05 09:47:00,
2013-03-05 04:52:00,21.0,18.8,28.92,NE,45,2.3,2.3,91,0.00,CLR,SKC,0.00,WeatherDisplay:10.37,2013-03-05 09:52:00,
2013-03-05 04:57:00,21.0,18.8,28.92,NE,45,2.3,2.3,91,0.00,CLR,SKC,0.00,WeatherDisplay:10.37,2013-03-05 09:57:00,
2013-03-05 05:02:00,21.0,18.8,28.92,NE,45,2.3,2.3,91,0.00,CLR,SKC,0.00,WeatherDisplay:10.37,2013-03-05 10:02:00,
2013-03-05 05:07:00,21.0,18.8,28.92,NE,45,2.3,2.3,91,0.00,CLR,SKC,0.00,WeatherDisplay:10.37,2013-03-05 10:07:00,
2013-03-05 05:12:00,21.0,18.8,28.92,NE,45,5.8,5.8,91,0.00,CLR,SKC,0.00,WeatherDisplay:10.37,2013-03-05 10:12:00,
2013-03-05 05:17:00,20.8,18.6,28.92,North,0,5.8,5.8,91,0.00,CLR,SKC,0.00,WeatherDisplay:10.37,2013-03-05 10:17:00,
2013-03-05 05:22:00,20.8,18.6,28.92,North,0,4.6,4.6,91,0.00,CLR,SKC,0.00,WeatherDisplay:10.37,2013-03-05 10:22:00,
2013-03-05 05:27:00,20.5,18.3,28.92,North,0,3.5,3.5,91,0.00,CLR,SKC,0.00,WeatherDisplay:10.37,2013-03-05 10:27:00,
2013-03-05 05:32:00,20.1,17.9,28.92,NE,45,3.5,3.5,91,0.00,CLR,SKC,0.00,WeatherDisplay:10.37,2013-03-05 10:32:00,
2013-03-05 05:37:00,20.1,17.9,28.92,East,90,4.6,4.6,91,0.00,CLR,SKC,0.00,WeatherDisplay:10.37,2013-03-05 10:37:00,
2013-03-05 05:42:00,19.9,18.0,28.92,NE,45,4.6,4.6,92,0.00,CLR,SKC,0.00,WeatherDisplay:10.37,2013-03-05 10:42:00,
2013-03-05 05:47:00,19.9,18.0,28.92,NE,45,5.8,5.8,92,0.00,CLR,SKC,0.00,WeatherDisplay:10.37,2013-03-05 10:47:00,
2013-03-05 05:52:00,19.8,17.8,28.92,North,0,8.1,8.1,92,0.00,CLR,SKC,0.00,WeatherDisplay:10.37,2013-03-05 10:52:00,
2013-03-05 05:57:00,19.6,17.9,28.91,NE,45,5.8,5.8,93,0.00,CLR,SKC,0.00,WeatherDisplay:10.37,2013-03-05 10:57:00,
2013-03-05 06:02:00,19.6,17.9,28.92,NE,45,5.8,5.8,93,0.00,CLR,SKC,0.00,WeatherDisplay:10.37,2013-03-05 11:02:00,
2013-03-05 06:07:00,19.6,17.9,28.92,NE,45,5.8,5.8,93,0.00,CLR,SKC,0.00,WeatherDisplay:10.37,2013-03-05 11:07:00,
2013-03-05 06:12:00,19.0,17.6,28.92,East,90,4.6,4.6,94,0.00,CLR,SKC,0.00,WeatherDisplay:10.37,2013-03-05 11:12:00,
2013-03-05 06:17:00,18.9,17.4,28.92,NE,45,5.8,5.8,94,0.00,CLR,SKC,0.00,WeatherDisplay:10.37,2013-03-05 11:17:00,
2013-03-05 06:22:00,18.9,17.7,28.92,North,0,5.8,5.8,95,0.00,CLR,SKC,0.00,WeatherDisplay:10.37,2013-03-05 11:22:00,
2013-03-05 06:27:00,18.7,17.5,28.91,NE,45,5.8,5.8,95,0.00,CLR,SKC,0.00,WeatherDisplay:10.37,2013-03-05 11:27:00,
2013-03-05 06:33:00,18.5,17.3,28.91,North,0,5.8,5.8,95,0.00,CLR,SKC,0.00,WeatherDisplay:10.37,2013-03-05 11:33:00,
2013-03-05 06:38:00,18.5,17.6,28.92,NE,45,5.8,5.8,96,0.00,CLR,SKC,0.00,WeatherDisplay:10.37,2013-03-05 11:38:00,
2013-03-05 06:43:00,18.3,17.4,28.92,NE,45,4.6,4.6,96,0.00,CLR,SKC,0.00,WeatherDisplay:10.37,2013-03-05 11:43:00,
2013-03-05 06:48:00,18.3,17.4,28.92,NE,45,5.8,5.8,96,0.00,CLR,SKC,0.00,WeatherDisplay:10.37,2013-03-05 11:48:00,
2013-03-05 06:53:00,18.3,17.4,28.91,NE,45,4.6,4.6,96,0.00,CLR,SKC,0.00,WeatherDisplay:10.37,2013-03-05 11:53:00,
2013-03-05 06:58:00,18.3,17.4,28.92,NE,45,3.5,3.5,96,0.00,CLR,SKC,0.00,WeatherDisplay:10.37,2013-03-05 11:58:00,
2013-03-05 07:03:00,18.3,17.4,28.91,NE,45,2.3,2.3,96,0.00,CLR,SKC,0.00,WeatherDisplay:10.37,2013-03-05 12:03:00,
2013-03-05 07:08:00,18.5,17.6,28.91,NE,45,3.5,3.5,96,0.00,CLR,SKC,0.00,WeatherDisplay:10.37,2013-03-05 12:08:00,
2013-03-05 07:13:00,18.5,17.6,28.91,NE,45,3.5,3.5,96,0.00,CLR,SKC,0.00,WeatherDisplay:10.37,2013-03-05 12:13:00,
2013-03-05 07:18:00,18.5,17.8,28.91,NE,45,5.8,5.8,97,0.00,CLR,SKC,0.00,WeatherDisplay:10.37,2013-03-05 12:18:00,
2013-03-05 07:23:00,18.7,18.0,28.91,NE,45,4.6,4.6,97,0.00,CLR,SKC,0.00,WeatherDisplay:10.37,2013-03-05 12:23:00,
2013-03-05 07:28:00,18.9,18.2,28.91,NE,45,5.8,5.8,97,0.00,CLR,SKC,0.00,WeatherDisplay:10.37,2013-03-05 12:28:00,
2013-03-05 07:33:00,19.0,18.1,28.91,NE,45,6.9,6.9,96,0.00,CLR,SKC,0.00,WeatherDisplay:10.37,2013-03-05 12:33:00,
2013-03-05 07:38:00,19.4,18.4,28.91,NE,45,5.8,5.8,96,0.00,CLR,SKC,0.00,WeatherDisplay:10.37,2013-03-05 12:38:00,
2013-03-05 07:43:00,19.6,18.6,28.91,North,0,4.6,4.6,96,0.00,CLR,SKC,0.00,WeatherDisplay:10.37,2013-03-05 12:43:00,
2013-03-05 07:48:00,19.8,18.8,28.91,NE,45,3.5,3.5,96,0.00,CLR,SKC,0.00,WeatherDisplay:10.37,2013-03-05 12:48:00,
2013-03-05 07:53:00,20.1,18.9,28.91,NE,45,5.8,5.8,95,0.00,CLR,SKC,0.00,WeatherDisplay:10.37,2013-03-05 12:53:00,
2013-03-05 07:58:00,20.5,19.3,28.91,NE,45,5.8,5.8,95,0.00,CLR,SKC,0.00,WeatherDisplay:10.37,2013-03-05 12:58:00,
2013-03-05 08:03:00,20.7,19.5,28.91,NE,45,4.6,4.6,95,0.00,CLR,SKC,0.00,WeatherDisplay:10.37,2013-03-05 13:03:00,
2013-03-05 08:08:00,21.0,19.3,28.91,NE,45,5.8,5.8,93,0.00,CLR,SKC,0.00,WeatherDisplay:10.37,2013-03-05 13:08:00,
2013-03-05 08:13:00,21.0,19.3,28.90,NE,45,5.8,5.8,93,0.00,CLR,SKC,0.00,WeatherDisplay:10.37,2013-03-05 13:13:00,
2013-03-05 08:18:00,21.2,19.5,28.90,East,90,5.8,5.8,93,0.00,CLR,SKC,0.00,WeatherDisplay:10.37,2013-03-05 13:18:00,
2013-03-05 08:23:00,22.1,20.4,28.91,NE,45,5.8,5.8,93,0.00,CLR,SKC,0.00,WeatherDisplay:10.37,2013-03-05 13:23:00,
2013-03-05 08:28:00,21.9,19.7,28.91,NE,45,5.8,5.8,91,0.00,CLR,SKC,0.00,WeatherDisplay:10.37,2013-03-05 13:28:00,
2013-03-05 08:33:00,22.1,19.9,28.90,NW,315,5.8,5.8,91,0.00,CLR,SKC,0.00,WeatherDisplay:10.37,2013-03-05 13:33:00,
2013-03-05 08:38:00,22.3,20.1,28.90,NE,45,5.8,5.8,91,0.00,CLR,SKC,0.00,WeatherDisplay:10.37,2013-03-05 13:38:00,
2013-03-05 08:44:00,22.6,20.4,28.90,North,0,5.8,5.8,91,0.00,CLR,SKC,0.00,WeatherDisplay:10.37,2013-03-05 13:44:00,
2013-03-05 08:49:00,23.0,20.8,28.90,North,0,5.8,5.8,91,0.00,CLR,SKC,0.00,WeatherDisplay:10.37,2013-03-05 13:49:00,
2013-03-05 08:54:00,23.4,21.1,28.90,North,0,2.3,2.3,91,0.00,CLR,SKC,0.00,WeatherDisplay:10.37,2013-03-05 13:54:00,
2013-03-05 08:59:00,23.7,21.5,28.89,NW,315,3.5,3.5,91,0.00,CLR,SKC,0.00,WeatherDisplay:10.37,2013-03-05 13:59:00,
2013-03-05 09:04:00,24.1,21.8,28.89,East,90,1.2,0.0,91,0.00,CLR,SKC,0.00,WeatherDisplay:10.37,2013-03-05 14:04:00,
2013-03-05 09:09:00,24.4,21.7,28.89,NW,315,5.8,5.8,89,0.00,CLR,SKC,0.00,WeatherDisplay:10.37,2013-03-05 14:09:00,
2013-03-05 09:14:00,24.8,22.0,28.89,NE,45,5.8,5.8,89,0.00,CLR,SKC,0.00,WeatherDisplay:10.37,2013-03-05 14:14:00,
2013-03-05 09:19:00,25.0,21.9,28.89,NW,315,4.6,4.6,88,0.00,CLR,SKC,0.00,WeatherDisplay:10.37,2013-03-05 14:19:00,
2013-03-05 09:24:00,25.3,22.3,28.89,NE,45,3.5,3.5,88,0.00,CLR,SKC,0.00,WeatherDisplay:10.37,2013-03-05 14:24:00,
2013-03-05 09:29:00,25.7,22.4,28.89,NE,45,4.6,4.6,87,0.00,CLR,SKC,0.00,WeatherDisplay:10.37,2013-03-05 14:29:00,
2013-03-05 09:34:00,27.1,24.1,28.90,NE,45,3.5,3.5,88,0.00,CLR,SKC,0.00,WeatherDisplay:10.37,2013-03-05 14:34:00,
2013-03-05 09:39:00,28.4,24.2,28.90,NE,45,4.6,4.6,84,0.00,CLR,SKC,0.00,WeatherDisplay:10.37,2013-03-05 14:39:00,
2013-03-05 09:44:00,29.5,24.7,28.90,NE,45,5.8,5.8,82,0.00,CLR,SKC,0.00,WeatherDisplay:10.37,2013-03-05 14:44:00,
2013-03-05 09:49:00,30.9,25.8,28.89,North,0,3.5,3.5,81,0.00,CLR,SKC,0.00,WeatherDisplay:10.37,2013-03-05 14:49:00,
2013-03-05 09:54:00,31.6,26.2,28.89,East,90,3.5,3.5,80,0.00,CLR,SKC,0.00,WeatherDisplay:10.37,2013-03-05 14:54:00,
2013-03-05 09:59:00,32.5,26.4,28.89,North,0,3.5,0.0,78,0.00,CLR,SKC,0.00,WeatherDisplay:10.37,2013-03-05 14:59:00,
2013-03-05 10:04:00,32.7,26.0,28.88,NE,45,5.8,5.8,76,0.00,CLR,SKC,0.00,WeatherDisplay:10.37,2013-03-05 15:04:00,
2013-03-05 10:09:00,33.3,25.9,28.88,East,90,4.6,0.0,74,0.00,CLR,SKC,0.00,WeatherDisplay:10.37,2013-03-05 15:09:00,
2013-03-05 10:14:00,34.3,25.9,28.87,NE,45,5.8,5.8,71,0.00,CLR,SKC,0.00,WeatherDisplay:10.37,2013-03-05 15:14:00,
2013-03-05 10:19:00,33.8,25.0,28.87,NE,45,5.8,5.8,70,0.00,CLR,SKC,0.00,WeatherDisplay:10.37,2013-03-05 15:19:00,
2013-03-05 10:24:00,33.6,24.2,28.87,South,180,5.8,5.8,68,0.00,CLR,SKC,0.00,WeatherDisplay:10.37,2013-03-05 15:24:00,
2013-03-05 10:29:00,34.5,25.4,28.87,North,0,5.8,5.8,69,0.00,CLR,SKC,0.00,WeatherDisplay:10.37,2013-03-05 15:29:00,
2013-03-05 10:34:00,35.6,26.1,28.87,East,90,3.5,3.5,68,0.00,CLR,SKC,0.00,WeatherDisplay:10.37,2013-03-05 15:34:00,
2013-03-05 10:39:00,36.0,25.0,28.87,North,0,5.8,5.8,64,0.00,CLR,SKC,0.00,WeatherDisplay:10.37,2013-03-05 15:39:00,
2013-03-05 10:44:00,36.3,26.0,28.87,NNE,14,6.9,6.9,66,0.00,CLR,SKC,0.00,WeatherDisplay:10.37,2013-03-05 15:44:00,
2013-03-05 10:49:00,36.9,26.9,28.88,North,0,3.5,0.0,67,0.00,CLR,SKC,0.00,WeatherDisplay:10.37,2013-03-05 15:49:00,
2013-03-05 10:54:00,36.1,25.1,28.88,NE,45,5.8,5.8,64,0.00,CLR,SKC,0.00,WeatherDisplay:10.37,2013-03-05 15:54:00,
2013-03-05 10:59:00,35.2,23.9,28.87,North,0,3.5,3.5,63,0.00,CLR,SKC,0.00,WeatherDisplay:10.37,2013-03-05 15:59:00,
2013-03-05 11:04:00,35.4,24.4,28.88,North,0,3.5,3.5,64,0.00,CLR,SKC,0.00,WeatherDisplay:10.37,2013-03-05 16:04:00,
2013-03-05 11:09:00,37.6,26.1,28.87,East,90,3.5,0.0,63,0.00,CLR,SKC,0.00,WeatherDisplay:10.37,2013-03-05 16:09:00,
2013-03-05 11:14:00,38.5,25.4,28.87,North,0,4.6,4.6,59,0.00,CLR,SKC,0.00,WeatherDisplay:10.37,2013-03-05 16:14:00,
2013-03-05 11:19:00,37.6,24.5,28.87,North,0,5.8,5.8,59,0.00,CLR,SKC,0.00,WeatherDisplay:10.37,2013-03-05 16:19:00,
2013-03-05 11:24:00,37.8,25.1,28.87,North,0,3.5,3.5,60,0.00,CLR,SKC,0.00,WeatherDisplay:10.37,2013-03-05 16:24:00,
2013-03-05 11:29:00,38.7,26.0,28.87,NE,45,2.3,0.0,60,0.00,CLR,SKC,0.00,WeatherDisplay:10.37,2013-03-05 16:29:00,
2013-03-05 11:34:00,39.4,25.4,28.86,NE,45,4.6,4.6,57,0.00,CLR,SKC,0.00,WeatherDisplay:10.37,2013-03-05 16:34:00,
2013-03-05 11:39:00,39.0,24.6,28.86,North,0,3.5,3.5,56,0.00,CLR,SKC,0.00,WeatherDisplay:10.37,2013-03-05 16:39:00,
2013-03-05 11:44:00,38.3,24.4,28.86,NW,315,5.8,5.8,57,0.00,CLR,SKC,0.00,WeatherDisplay:10.37,2013-03-05 16:44:00,
2013-03-05 11:49:00,38.1,25.0,28.85,NE,45,8.1,8.1,59,0.00,CLR,SKC,0.00,WeatherDisplay:10.37,2013-03-05 16:49:00,
2013-03-05 11:54:00,38.7,24.7,28.85,SE,135,5.8,5.8,57,0.00,CLR,SKC,0.00,WeatherDisplay:10.37,2013-03-05 16:54:00,
2013-03-05 11:59:00,38.3,24.4,28.85,NE,45,6.9,6.9,57,0.00,CLR,SKC,0.00,WeatherDisplay:10.37,2013-03-05 16:59:00,
2013-03-05 12:04:00,38.3,24.4,28.85,NNE,22,5.8,5.8,57,0.00,CLR,SKC,0.00,WeatherDisplay:10.37,2013-03-05 17:04:00,
2013-03-05 12:09:00,37.8,24.3,28.84,East,90,5.8,5.8,58,0.00,CLR,SKC,0.00,WeatherDisplay:10.37,2013-03-05 17:09:00,
2013-03-05 12:14:00,38.5,24.1,28.84,NE,45,8.1,8.1,56,0.00,CLR,SKC,0.00,WeatherDisplay:10.37,2013-03-05 17:14:00,
2013-03-05 12:19:00,39.0,25.1,28.83,SE,135,6.9,6.9,57,0.00,CLR,SKC,0.00,WeatherDisplay:10.37,2013-03-05 17:19:00,
2013-03-05 12:24:00,39.7,25.3,28.83,NE,45,6.9,6.9,56,0.00,CLR,SKC,0.00,WeatherDisplay:10.37,2013-03-05 17:24:00,
2013-03-05 12:29:00,39.6,25.1,28.83,North,0,9.2,9.2,56,0.00,CLR,SKC,0.00,WeatherDisplay:10.37,2013-03-05 17:29:00,
2013-03-05 12:34:00,40.3,24.9,28.82,NE,45,6.9,6.9,54,0.00,CLR,SKC,0.00,WeatherDisplay:10.37,2013-03-05 17:34:00,
2013-03-05 12:39:00,40.6,25.3,28.82,NE,45,8.1,8.1,54,0.00,CLR,SKC,0.00,WeatherDisplay:10.37,2013-03-05 17:39:00,
2013-03-05 12:44:00,40.8,25.0,28.81,NE,45,10.4,10.4,53,0.00,CLR,SKC,0.00,WeatherDisplay:10.37,2013-03-05 17:44:00,
2013-03-05 12:49:00,41.2,24.4,28.81,NW,315,11.5,11.5,51,0.00,CLR,SKC,0.00,WeatherDisplay:10.37,2013-03-05 17:49:00,
2013-03-05 12:54:00,40.3,24.0,28.81,East,90,11.5,11.5,52,0.00,CLR,SKC,0.00,WeatherDisplay:10.37,2013-03-05 17:54:00,
2013-03-05 12:59:00,40.5,25.1,28.80,North,0,8.1,8.1,54,0.00,CLR,SKC,0.00,WeatherDisplay:10.37,2013-03-05 17:59:00,
2013-03-05 13:04:00,40.6,25.3,28.80,NE,45,10.4,10.4,54,0.00,CLR,SKC,0.00,WeatherDisplay:10.37,2013-03-05 18:04:00,
2013-03-05 13:09:00,41.4,23.6,28.80,NE,45,10.4,10.4,49,0.00,CLR,SKC,0.00,WeatherDisplay:10.37,2013-03-05 18:09:00,
2013-03-05 13:14:00,42.6,25.7,28.79,North,0,9.2,9.2,51,0.00,CLR,SKC,0.00,WeatherDisplay:10.37,2013-03-05 18:14:00,
2013-03-05 13:19:00,43.5,26.1,28.79,ENE,68,8.1,8.1,50,0.00,CLR,SKC,0.00,WeatherDisplay:10.37,2013-03-05 18:19:00,
2013-03-05 13:24:00,45.3,26.3,28.78,North,0,10.4,10.4,47,0.00,CLR,SKC,0.00,WeatherDisplay:10.37,2013-03-05 18:24:00,
2013-03-05 13:29:00,45.1,25.6,28.77,SE,135,11.5,11.5,46,0.00,CLR,SKC,0.00,WeatherDisplay:10.37,2013-03-05 18:29:00,
2013-03-05 13:34:00,44.4,22.2,28.77,NE,45,9.2,9.2,41,0.00,CLR,SKC,0.00,WeatherDisplay:10.37,2013-03-05 18:34:00,
2013-03-05 13:39:00,44.1,24.6,28.77,NE,45,6.9,6.9,46,0.00,CLR,SKC,0.00,WeatherDisplay:10.37,2013-03-05 18:39:00,
2013-03-05 13:44:00,43.9,22.8,28.76,NW,315,10.4,10.4,43,0.00,CLR,SKC,0.00,WeatherDisplay:10.37,2013-03-05 18:44:00,
2013-03-05 13:49:00,43.9,21.7,28.76,ENE,68,8.1,8.1,41,0.00,CLR,SKC,0.00,WeatherDisplay:10.37,2013-03-05 18:49:00,
2013-03-05 13:54:00,43.2,21.0,28.76,NE,45,13.8,13.8,41,0.00,CLR,SKC,0.00,WeatherDisplay:10.37,2013-03-05 18:54:00,
2013-03-05 13:59:00,43.3,21.2,28.75,NE,45,11.5,11.5,41,0.00,CLR,SKC,0.00,WeatherDisplay:10.37,2013-03-05 18:59:00,
2013-03-05 14:04:00,43.3,21.2,28.75,NE,45,12.7,12.7,41,0.00,CLR,SKC,0.00,WeatherDisplay:10.37,2013-03-05 19:04:00,
2013-03-05 14:09:00,43.3,22.9,28.75,NNW,338,13.8,13.8,44,0.00,CLR,SKC,0.00,WeatherDisplay:10.37,2013-03-05 19:09:00,
2013-03-05 14:14:00,44.4,24.4,28.75,West,270,11.5,11.5,45,0.00,CLR,SKC,0.00,WeatherDisplay:10.37,2013-03-05 19:14:00,
2013-03-05 14:19:00,44.6,22.9,28.74,NE,45,11.5,11.5,42,0.00,CLR,SKC,0.00,WeatherDisplay:10.37,2013-03-05 19:19:00,
2013-03-05 14:24:00,44.2,23.1,28.74,East,90,6.9,6.9,43,0.00,CLR,SKC,0.00,WeatherDisplay:10.37,2013-03-05 19:24:00,
2013-03-05 14:29:00,44.4,22.7,28.74,NE,45,8.1,8.1,42,0.00,CLR,SKC,0.00,WeatherDisplay:10.37,2013-03-05 19:29:00,
2013-03-05 14:34:00,44.1,20.0,28.74,NE,45,12.7,12.7,38,0.00,CLR,SKC,0.00,WeatherDisplay:10.37,2013-03-05 19:34:00,
2013-03-05 14:39:00,44.2,20.2,28.73,NE,45,9.2,9.2,38,0.00,CLR,SKC,0.00,WeatherDisplay:10.37,2013-03-05 19:39:00,
2013-03-05 14:44:00,44.4,19.7,28.73,North,0,11.5,11.5,37,0.00,CLR,SKC,0.00,WeatherDisplay:10.37,2013-03-05 19:44:00,
2013-03-05 14:49:00,44.6,20.5,28.72,NE,45,9.2,9.2,38,0.00,CLR,SKC,0.00,WeatherDisplay:10.37,2013-03-05 19:49:00,
2013-03-05 14:54:00,44.6,20.5,28.72,NE,45,10.4,10.4,38,0.00,CLR,SKC,0.00,WeatherDisplay:10.37,2013-03-05 19:54:00,
2013-03-05 14:59:00,44.1,21.3,28.71,WNW,292,12.7,12.7,40,0.00,CLR,SKC,0.00,WeatherDisplay:10.37,2013-03-05 19:59:00,
2013-03-05 15:04:00,44.1,21.8,28.71,ENE,68,9.2,9.2,41,0.00,CLR,SKC,0.00,WeatherDisplay:10.37,2013-03-05 20:04:00,
2013-03-05 15:09:00,44.1,21.8,28.71,East,90,9.2,9.2,41,0.00,CLR,SKC,0.00,WeatherDisplay:10.37,2013-03-05 20:09:00,
2013-03-05 15:14:00,44.1,23.0,28.71,NE,45,5.8,5.8,43,0.00,CLR,SKC,0.00,WeatherDisplay:10.37,2013-03-05 20:14:00,
2013-03-05 15:19:00,44.1,22.4,28.71,East,90,4.6,4.6,42,0.00,CLR,SKC,0.00,WeatherDisplay:10.37,2013-03-05 20:19:00,
2013-03-05 15:24:00,43.9,21.1,28.70,NE,45,15.0,15.0,40,0.00,CLR,SKC,0.00,WeatherDisplay:10.37,2013-03-05 20:24:00,
2013-03-05 15:29:00,44.1,21.8,28.70,East,90,13.8,13.8,41,0.00,CLR,SKC,0.00,WeatherDisplay:10.37,2013-03-05 20:29:00,
2013-03-05 15:34:00,44.8,23.6,28.70,East,90,4.6,4.6,43,0.00,CLR,SKC,0.00,WeatherDisplay:10.37,2013-03-05 20:34:00,
2013-03-05 15:39:00,45.3,21.8,28.69,NE,45,12.7,12.7,39,0.00,CLR,SKC,0.00,WeatherDisplay:10.37,2013-03-05 20:39:00,
2013-03-05 15:44:00,45.0,22.1,28.69,NE,45,12.7,12.7,40,0.00,CLR,SKC,0.00,WeatherDisplay:10.37,2013-03-05 20:44:00,
2013-03-05 15:49:00,45.0,22.1,28.69,WSW,248,12.7,12.7,40,0.00,CLR,SKC,0.00,WeatherDisplay:10.37,2013-03-05 20:49:00,
2013-03-05 15:54:00,45.0,23.2,28.69,NE,45,6.9,6.9,42,0.00,CLR,SKC,0.00,WeatherDisplay:10.37,2013-03-05 20:54:00,
2013-03-05 15:59:00,45.1,22.8,28.69,East,90,13.8,13.8,41,0.00,CLR,SKC,0.00,WeatherDisplay:10.37,2013-03-05 20:59:00,
2013-03-05 16:04:00,45.1,22.2,28.69,North,0,5.8,5.8,40,0.00,CLR,SKC,0.00,WeatherDisplay:10.37,2013-03-05 21:04:00,
2013-03-05 16:09:00,46.6,23.5,28.68,NNW,338,12.7,12.7,40,0.00,CLR,SKC,0.00,WeatherDisplay:10.37,2013-03-05 21:09:00,
2013-03-05 16:14:00,46.0,23.0,28.69,NE,45,16.1,16.1,40,0.00,CLR,SKC,0.00,WeatherDisplay:10.37,2013-03-05 21:14:00,
2013-03-05 16:19:00,45.9,22.9,28.69,NE,45,12.7,12.7,40,0.00,CLR,SKC,0.00,WeatherDisplay:10.37,2013-03-05 21:19:00,
2013-03-05 16:24:00,45.3,23.0,28.69,NE,45,10.4,10.4,41,0.00,CLR,SKC,0.00,WeatherDisplay:10.37,2013-03-05 21:24:00,
2013-03-05 16:29:00,45.3,23.5,28.69,NE,45,8.1,8.1,42,0.00,CLR,SKC,0.00,WeatherDisplay:10.37,2013-03-05 21:29:00,
2013-03-05 16:34:00,45.1,23.4,28.68,NE,45,8.1,8.1,42,0.00,CLR,SKC,0.00,WeatherDisplay:10.37,2013-03-05 21:34:00,
2013-03-05 16:39:00,45.0,23.2,28.69,NE,45,6.9,6.9,42,0.00,CLR,SKC,0.00,WeatherDisplay:10.37,2013-03-05 21:39:00,
2013-03-05 16:44:00,45.0,23.2,28.68,NE,45,5.8,5.8,42,0.00,CLR,SKC,0.00,WeatherDisplay:10.37,2013-03-05 21:44:00,
2013-03-05 16:49:00,44.8,22.5,28.68,NE,45,6.9,6.9,41,0.00,CLR,SKC,0.00,WeatherDisplay:10.37,2013-03-05 21:49:00,
2013-03-05 16:54:00,44.8,21.9,28.67,NE,45,9.2,9.2,40,0.00,CLR,SKC,0.00,WeatherDisplay:10.37,2013-03-05 21:54:00,
2013-03-05 16:59:00,44.6,22.3,28.68,NE,45,6.9,6.9,41,0.00,CLR,SKC,0.00,WeatherDisplay:10.37,2013-03-05 21:59:00,
2013-03-05 17:04:00,44.6,22.3,28.67,NE,45,6.9,6.9,41,0.00,CLR,SKC,0.00,WeatherDisplay:10.37,2013-03-05 22:04:00,
2013-03-05 17:09:00,44.6,22.3,28.67,NE,45,6.9,6.9,41,0.00,CLR,SKC,0.00,WeatherDisplay:10.37,2013-03-05 22:09:00,
2013-03-05 17:14:00,44.6,21.7,28.67,NE,45,8.1,8.1,40,0.00,CLR,SKC,0.00,WeatherDisplay:10.37,2013-03-05 22:14:00,
2013-03-05 17:19:00,44.6,21.1,28.66,NE,45,9.2,9.2,39,0.00,CLR,SKC,0.00,WeatherDisplay:10.37,2013-03-05 22:19:00,
2013-03-05 17:24:00,44.8,21.3,28.66,NE,45,11.5,11.5,39,0.00,CLR,SKC,0.00,WeatherDisplay:10.37,2013-03-05 22:24:00,
2013-03-05 17:29:00,44.6,21.1,28.65,NE,45,10.4,10.4,39,0.00,CLR,SKC,0.00,WeatherDisplay:10.37,2013-03-05 22:29:00,
2013-03-05 17:34:00,44.6,21.1,28.65,NE,45,6.9,6.9,39,0.00,CLR,SKC,0.00,WeatherDisplay:10.37,2013-03-05 22:34:00,
2013-03-05 17:39:00,44.4,21.0,28.65,North,0,6.9,6.9,39,0.00,CLR,SKC,0.00,WeatherDisplay:10.37,2013-03-05 22:39:00,
2013-03-05 17:44:00,44.2,20.2,28.65,NNE,22,5.8,5.8,38,0.00,CLR,SKC,0.00,WeatherDisplay:10.37,2013-03-05 22:44:00,
2013-03-05 17:49:00,44.1,21.8,28.64,NE,45,11.5,11.5,41,0.00,CLR,SKC,0.00,WeatherDisplay:10.37,2013-03-05 22:49:00,
2013-03-05 17:54:00,43.5,23.0,28.64,NW,315,13.8,13.8,44,0.00,CLR,SKC,0.00,WeatherDisplay:10.37,2013-03-05 22:54:00,
2013-03-05 17:59:00,43.0,23.1,28.64,NE,45,12.7,12.7,45,0.00,CLR,SKC,0.00,WeatherDisplay:10.37,2013-03-05 22:59:00,
2013-03-05 18:04:00,43.0,23.1,28.64,North,0,10.4,10.4,45,0.00,CLR,SKC,0.00,WeatherDisplay:10.37,2013-03-05 23:04:00,
2013-03-05 18:09:00,42.3,22.9,28.63,NE,45,12.7,12.7,46,0.00,CLR,SKC,0.00,WeatherDisplay:10.37,2013-03-05 23:09:00,
2013-03-05 18:14:00,42.1,23.3,28.63,North,0,10.4,10.4,47,0.00,CLR,SKC,0.00,WeatherDisplay:10.37,2013-03-05 23:14:00,
2013-03-05 18:19:00,41.7,22.9,28.62,NE,45,11.5,11.5,47,0.00,CLR,SKC,0.00,WeatherDisplay:10.37,2013-03-05 23:19:00,
2013-03-05 18:24:00,41.5,23.3,28.63,NE,45,10.4,10.4,48,0.00,CLR,SKC,0.00,WeatherDisplay:10.37,2013-03-05 23:24:00,
2013-03-05 18:29:00,41.4,23.1,28.64,NE,45,6.9,6.9,48,0.00,CLR,SKC,0.00,WeatherDisplay:10.37,2013-03-05 23:29:00,
2013-03-05 18:34:00,41.2,23.0,28.64,NE,45,5.8,5.8,48,0.00,CLR,SKC,0.00,WeatherDisplay:10.37,2013-03-05 23:34:00,
2013-03-05 18:39:00,41.0,23.3,28.64,NE,45,6.9,6.9,49,0.00,CLR,SKC,0.00,WeatherDisplay:10.37,2013-03-05 23:39:00,
2013-03-05 18:44:00,40.8,23.1,28.63,ENE,68,5.8,5.8,49,0.00,CLR,SKC,0.00,WeatherDisplay:10.37,2013-03-05 23:44:00,
2013-03-05 18:49:00,40.6,22.9,28.63,NE,45,5.8,5.8,49,0.00,CLR,SKC,0.00,WeatherDisplay:10.37,2013-03-05 23:49:00,
2013-03-05 18:54:00,40.6,22.9,28.63,NE,45,9.2,9.2,49,0.00,CLR,SKC,0.00,WeatherDisplay:10.37,2013-03-05 23:54:00,
2013-03-05 18:59:00,40.6,22.9,28.63,NE,45,9.2,9.2,49,0.00,CLR,SKC,0.00,WeatherDisplay:10.37,2013-03-05 23:59:00,
2013-03-05 19:04:00,40.6,23.4,28.63,NE,45,5.8,5.8,50,0.00,CLR,SKC,0.00,WeatherDisplay:10.37,2013-03-06 00:04:00,
2013-03-05 19:09:00,40.5,23.3,28.62,ENE,68,9.2,9.2,50,0.00,CLR,SKC,0.00,WeatherDisplay:10.37,2013-03-06 00:09:00,
2013-03-05 19:14:00,40.5,23.7,28.63,SW,225,9.2,9.2,51,0.00,CLR,SKC,0.00,WeatherDisplay:10.37,2013-03-06 00:14:00,
2013-03-05 19:19:00,40.5,23.7,28.62,North,0,8.1,8.1,51,0.00,CLR,SKC,0.00,WeatherDisplay:10.37,2013-03-06 00:19:00,
2013-03-05 19:24:00,40.5,23.7,28.62,NE,45,6.9,6.9,51,0.00,CLR,SKC,0.00,WeatherDisplay:10.37,2013-03-06 00:24:00,
2013-03-05 19:29:00,40.5,23.7,28.62,NE,45,6.9,6.9,51,0.00,CLR,SKC,0.00,WeatherDisplay:10.37,2013-03-06 00:29:00,
2013-03-05 19:34:00,40.5,23.3,28.62,NE,45,4.6,4.6,50,0.00,CLR,SKC,0.00,WeatherDisplay:10.37,2013-03-06 00:34:00,
2013-03-05 19:39:00,40.6,22.5,28.62,NE,45,12.7,12.7,48,0.00,CLR,SKC,0.00,WeatherDisplay:10.37,2013-03-06 00:39:00,
2013-03-05 19:44:00,40.6,22.5,28.61,East,90,10.4,10.4,48,0.00,CLR,SKC,0.00,WeatherDisplay:10.37,2013-03-06 00:44:00,
2013-03-05 19:49:00,40.8,22.1,28.61,East,90,8.1,8.1,47,0.00,CLR,SKC,0.00,WeatherDisplay:10.37,2013-03-06 00:49:00,
2013-03-05 19:54:00,40.6,22.0,28.61,NE,45,8.1,8.1,47,0.00,CLR,SKC,0.00,WeatherDisplay:10.37,2013-03-06 00:54:00,
2013-03-05 19:59:00,40.6,22.5,28.61,NE,45,6.9,6.9,48,0.00,CLR,SKC,0.00,WeatherDisplay:10.37,2013-03-06 00:59:00,
2013-03-05 20:04:00,40.5,22.3,28.61,NE,45,5.8,5.8,48,0.00,CLR,SKC,0.00,WeatherDisplay:10.37,2013-03-06 01:04:00,
2013-03-05 20:09:00,40.3,22.1,28.61,East,90,8.1,8.1,48,0.00,CLR,SKC,0.00,WeatherDisplay:10.37,2013-03-06 01:09:00,
2013-03-05 20:14:00,39.9,22.3,28.60,East,90,11.5,11.5,49,0.00,CLR,SKC,0.00,WeatherDisplay:10.37,2013-03-06 01:14:00,
2013-03-05 20:19:00,39.9,22.3,28.59,NE,45,12.7,12.7,49,0.00,CLR,SKC,0.00,WeatherDisplay:10.37,2013-03-06 01:19:00,
2013-03-05 20:24:00,39.7,22.1,28.59,East,90,5.8,5.8,49,0.00,CLR,SKC,0.00,WeatherDisplay:10.37,2013-03-06 01:24:00,
2013-03-05 20:29:00,39.6,22.4,28.59,NE,45,9.2,9.2,50,0.00,CLR,SKC,0.00,WeatherDisplay:10.37,2013-03-06 01:29:00,
2013-03-05 20:34:00,39.6,22.4,28.58,East,90,10.4,10.4,50,0.00,CLR,SKC,0.00,WeatherDisplay:10.37,2013-03-06 01:34:00,
2013-03-05 20:39:00,39.4,22.3,28.58,SE,135,9.2,9.2,50,0.00,CLR,SKC,0.00,WeatherDisplay:10.37,2013-03-06 01:39:00,
2013-03-05 20:44:00,39.2,22.6,28.58,NE,45,12.7,12.7,51,0.00,CLR,SKC,0.00,WeatherDisplay:10.37,2013-03-06 01:44:00,
2013-03-05 20:49:00,39.4,22.3,28.58,NE,45,17.3,17.3,50,0.00,CLR,SKC,0.00,WeatherDisplay:10.37,2013-03-06 01:49:00,
2013-03-05 20:54:00,39.4,22.7,28.58,NE,45,12.7,12.7,51,0.00,CLR,SKC,0.00,WeatherDisplay:10.37,2013-03-06 01:54:00,
2013-03-05 20:59:00,39.2,22.6,28.58,NE,45,10.4,10.4,51,0.00,CLR,SKC,0.00,WeatherDisplay:10.37,2013-03-06 01:59:00,
2013-03-05 21:04:00,39.2,22.6,28.57,East,90,6.0,6.0,51,0.00,CLR,SKC,0.00,WeatherDisplay:10.37,2013-03-06 02:04:00,
2013-03-05 21:09:00,39.0,22.4,28.57,East,90,9.2,9.2,51,0.00,CLR,SKC,0.00,WeatherDisplay:10.37,2013-03-06 02:09:00,
2013-03-05 21:14:00,39.0,22.9,28.57,NE,45,12.7,12.7,52,0.00,CLR,SKC,0.00,WeatherDisplay:10.37,2013-03-06 02:14:00,
2013-03-05 21:19:00,39.0,22.9,28.56,NNE,22,10.4,10.4,52,0.00,CLR,SKC,0.00,WeatherDisplay:10.37,2013-03-06 02:19:00,
2013-03-05 21:24:00,38.8,22.2,28.57,East,90,10.4,10.4,51,0.00,CLR,SKC,0.00,WeatherDisplay:10.37,2013-03-06 02:24:00,
2013-03-05 21:29:00,38.8,22.7,28.56,NE,45,17.3,17.3,52,0.00,CLR,SKC,0.00,WeatherDisplay:10.37,2013-03-06 02:29:00,
2013-03-05 21:34:00,38.8,22.7,28.57,East,90,6.9,6.9,52,0.00,CLR,SKC,0.00,WeatherDisplay:10.37,2013-03-06 02:34:00,
2013-03-05 21:39:00,38.8,22.7,28.57,NE,45,5.8,5.8,52,0.00,CLR,SKC,0.00,WeatherDisplay:10.37,2013-03-06 02:39:00,
2013-03-05 21:44:00,38.8,22.7,28.57,East,90,10.4,10.4,52,0.00,CLR,SKC,0.00,WeatherDisplay:10.37,2013-03-06 02:44:00,
2013-03-05 21:49:00,38.8,22.7,28.57,East,90,9.2,9.2,52,0.00,CLR,SKC,0.00,WeatherDisplay:10.37,2013-03-06 02:49:00,
2013-03-05 21:54:00,38.8,23.2,28.57,NE,45,8.1,8.1,53,0.00,CLR,SKC,0.00,WeatherDisplay:10.37,2013-03-06 02:54:00,
2013-03-05 21:59:00,39.0,23.3,28.56,East,90,9.2,9.2,53,0.00,CLR,SKC,0.00,WeatherDisplay:10.37,2013-03-06 02:59:00,
2013-03-05 22:04:00,39.0,23.8,28.56,East,90,10.4,10.4,54,0.00,CLR,SKC,0.00,WeatherDisplay:10.37,2013-03-06 03:04:00,
2013-03-05 22:09:00,38.8,24.0,28.56,East,90,6.9,6.9,55,0.00,CLR,SKC,0.00,WeatherDisplay:10.37,2013-03-06 03:09:00,
2013-03-05 22:14:00,38.7,24.3,28.56,East,90,10.4,10.4,56,0.00,CLR,SKC,0.00,WeatherDisplay:10.37,2013-03-06 03:14:00,
2013-03-05 22:19:00,38.7,24.3,28.56,ENE,68,12.7,12.7,56,0.00,CLR,SKC,0.00,WeatherDisplay:10.37,2013-03-06 03:19:00,
2013-03-05 22:24:00,38.7,25.1,28.56,NE,45,5.8,5.8,58,0.00,CLR,SKC,0.00,WeatherDisplay:10.37,2013-03-06 03:24:00,
2013-03-05 22:29:00,38.5,25.0,28.56,SE,135,15.0,15.0,58,0.00,CLR,SKC,0.00,WeatherDisplay:10.37,2013-03-06 03:29:00,
2013-03-05 22:34:00,38.3,25.2,28.56,NE,45,5.8,5.8,59,0.00,CLR,SKC,0.00,WeatherDisplay:10.37,2013-03-06 03:34:00,
2013-03-05 22:39:00,38.3,25.6,28.56,SE,135,6.9,6.9,60,0.00,CLR,SKC,0.00,WeatherDisplay:10.37,2013-03-06 03:39:00,
2013-03-05 22:44:00,38.3,25.6,28.56,East,90,6.9,6.9,60,0.00,CLR,SKC,0.00,WeatherDisplay:10.37,2013-03-06 03:44:00,
2013-03-05 22:49:00,38.1,25.4,28.56,East,90,8.1,8.1,60,0.00,CLR,SKC,0.00,WeatherDisplay:10.37,2013-03-06 03:49:00,
2013-03-05 22:54:00,38.1,25.4,28.56,East,90,4.6,4.6,60,0.00,CLR,SKC,0.00,WeatherDisplay:10.37,2013-03-06 03:54:00,
2013-03-05 22:59:00,38.3,25.6,28.56,NE,45,12.7,12.7,60,0.00,CLR,SKC,0.00,WeatherDisplay:10.37,2013-03-06 03:59:00,
2013-03-05 23:04:00,38.3,25.2,28.56,NE,45,8.1,8.1,59,0.00,CLR,SKC,0.00,WeatherDisplay:10.37,2013-03-06 04:04:00,
2013-03-05 23:09:00,38.3,25.6,28.56,NE,45,8.1,8.1,60,0.00,CLR,SKC,0.00,WeatherDisplay:10.37,2013-03-06 04:09:00,
2013-03-05 23:14:00,38.3,25.6,28.56,East,90,8.1,8.1,60,0.00,CLR,SKC,0.00,WeatherDisplay:10.37,2013-03-06 04:14:00,
2013-03-05 23:19:00,38.1,25.8,28.56,East,90,10.4,10.4,61,0.00,CLR,SKC,0.00,WeatherDisplay:10.37,2013-03-06 04:19:00,
2013-03-05 23:24:00,38.1,25.8,28.56,NE,45,8.1,8.1,61,0.00,CLR,SKC,0.00,WeatherDisplay:10.37,2013-03-06 04:24:00,
2013-03-05 23:30:00,38.1,26.2,28.55,NE,45,10.4,10.4,62,0.00,CLR,SKC,0.00,WeatherDisplay:10.37,2013-03-06 04:30:00,
2013-03-05 23:35:00,37.8,27.4,28.55,East,90,11.5,11.5,66,0.00,CLR,SKC,0.00,WeatherDisplay:10.37,2013-03-06 04:35:00,
2013-03-05 23:40:00,37.0,29.5,28.56,East,90,15.0,15.0,74,0.00,CLR,SKC,0.00,WeatherDisplay:10.37,2013-03-06 04:40:00,
2013-03-05 23:45:00,35.6,31.2,28.56,SE,135,12.7,12.7,84,0.00,CLR,SKC,0.00,WeatherDisplay:10.37,2013-03-06 04:45:00,
2013-03-05 23:50:00,34.5,32.2,28.55,NE,45,15.0,15.0,91,0.00,CLR,SKC,0.00,WeatherDisplay:10.37,2013-03-06 04:50:00,
2013-03-05 23:55:00,33.8,32.0,28.55,NE,45,6.9,6.9,93,0.00,CLR,SKC,0.00,WeatherDisplay:10.37,2013-03-06 04:55:00,